Location: Dillon
(41.1766°N, 107.0923°W)
Time: 20:49:24
(UTC+00:00)

N. Korean satellite - Visible Passes

Search period start: 24 January 2022 00:00
Search period end: 03 February 2022 00:00
Orbit: 447 x 491 km, 97.3° (Epoch: 24 January)

Date Brightness Start Highest point End Pass type
(mag) Time Alt. Az. Time Alt. Az. Time Alt. Az.
24 Jan 9.6 11:31:22 10° NE 11:38:29 - SSE 11:32:11 13° ENE visible
24 Jan 7.7 13:03:54 10° NNW 13:06:15 25° NW 13:06:15 25° NW visible
25 Jan 6.9 12:34:22 10° N 12:43:02 - SSW 12:37:10 48° NNW visible
26 Jan 7.7 12:05:15 10° NNE 12:13:31 - S 12:08:06 41° ENE visible
26 Jan 8.5 13:40:17 10° NW 13:41:29 11° WNW 13:42:09 11° WNW visible
27 Jan 9.2 11:36:41 10° NE 11:43:59 - SSE 11:39:01 20° E visible
27 Jan 7.7 13:09:34 10° NNW 13:12:32 24° WNW 13:13:06 23° W visible
28 Jan 6.6 12:39:53 10° N 12:43:28 55° WNW 12:44:03 48° WSW visible
29 Jan 7.1 12:10:40 10° NNE 12:14:16 57° E 12:15:02 45° SSE visible
30 Jan 8.9 11:41:55 10° NE 11:44:55 24° E 11:46:03 20° ESE visible
30 Jan 7.8 13:15:09 10° NNW 13:17:55 21° WNW 13:20:08 13° WSW visible
31 Jan 10.0 11:14:45 10° E 11:15:25 10° E 11:16:07 10° E visible
31 Jan 6.7 12:45:19 10° N 12:48:50 47° WNW 12:51:17 17° SW visible
01 Feb 6.8 12:15:59 10° NNE 12:19:36 68° E 12:23:10 10° S visible
02 Feb 8.6 11:47:05 10° NE 11:50:14 27° E 11:53:20 10° SSE visible
02 Feb 8.0 13:20:38 10° NNW 13:23:10 18° WNW 13:25:40 10° WSW visible
